owner,sensor,date,latitude,longitude,vertical_datum,wind_speed,wind_to_direction,wind_speed_of_gust,qcFlag 
TABS,ioos:station:wmo:42043:1,2009-08-01T00:00:00Z,28.9818,-94.9186,4.0,5.420857866,171.4067495,6.43,'11111222,11111222,11111222' 
TABS,ioos:station:wmo:42043:1,2009-08-01T00:30:00Z,28.9818,-94.9186,4.0,5.161240161,165.6409075,6.45,'11111222,11111222,11111222' 
TABS,ioos:station:wmo:42043:1,2009-08-01T01:00:00Z,28.9818,-94.9186,4.0,5.845699274,162.9912006,7.29,'11111222,11111222,11111222' 
TABS,ioos:station:wmo:42043:1,2009-08-01T01:30:00Z,28.9818,-94.9186,4.0,6.542056252,158.1012722,7.94,'11111222,11111222,11111222' 
TABS,ioos:station:wmo:42043:1,2009-08-01T02:00:00Z,28.9818,-94.9186,4.0,6.312091571,159.6991895,7.53,'11111222,11111222,11111222' 
TABS,ioos:station:wmo:42043:1,2009-08-01T02:30:00Z,28.9818,-94.9186,4.0,6.743092762,157.5045845,8.49,'11111222,11111222,11111222' 
TABS,ioos:station:wmo:42043:1,2009-08-01T03:00:00Z,28.9818,-94.9186,4.0,6.40290559,158.5644225,7.98,'11111222,11111222,11111222' 
TABS,ioos:station:wmo:42043:1,2009-08-01T03:30:00Z,28.9818,-94.9186,4.0,6.86769248,157.3932335,8.35,'11111222,11111222,11111222' 
TABS,ioos:station:wmo:42043:1,2009-08-01T04:00:00Z,28.9818,-94.9186,4.0,6.755930728,162.6917594,8.72,'11111222,11111222,11111222' 
TABS,ioos:station:wmo:42043:1,2009-08-01T04:30:00Z,28.9818,-94.9186,4.0,6.856544319,168.1330989,8.26,'11111222,11111222,11111222' 
TABS,ioos:station:wmo:42043:1,2009-08-01T05:00:00Z,28.9818,-94.9186,4.0,7.805158551,167.4953185,9.17,'11111222,11111222,11111222' 
TABS,ioos:station:wmo:42043:1,2009-08-01T05:30:00Z,28.9818,-94.9186,4.0,7.717046067,170.9040897,9.53,'11111222,11111222,11111222' 
TABS,ioos:station:wmo:42043:1,2009-08-01T06:00:00Z,28.9818,-94.9186,4.0,7.423543628,173.1145396,8.92,'11111222,11111222,11111222' 
TABS,ioos:station:wmo:42043:1,2009-08-01T06:30:00Z,28.9818,-94.9186,4.0,7.557228328,176.1306695,8.95,'11111222,11111222,11111222' 
TABS,ioos:station:wmo:42043:1,2009-08-01T07:00:00Z,28.9818,-94.9186,4.0,7.938627085,177.3288327,9.82,'11111222,11111222,11111222' 
TABS,ioos:station:wmo:42043:1,2009-08-01T07:30:00Z,28.9818,-94.9186,4.0,6.97286885,178.356597,8.67,'11111222,11111222,11111222' 
TABS,ioos:station:wmo:42043:1,2009-08-01T08:00:00Z,28.9818,-94.9186,4.0,8.318232985,177.4508246,9.75,'11111222,11111222,11111222' 
TABS,ioos:station:wmo:42043:1,2009-08-01T08:30:00Z,28.9818,-94.9186,4.0,7.387827827,182.6379821,9.36,'11111222,11111222,11111222' 
TABS,ioos:station:wmo:42043:1,2009-08-01T09:00:00Z,28.9818,-94.9186,4.0,7.791001219,186.5596609,9.47,'11111222,11111222,11111222' 
TABS,ioos:station:wmo:42043:1,2009-08-01T09:30:00Z,28.9818,-94.9186,4.0,7.603269034,186.1156997,9.11,'11111222,11111222,11111222' 
TABS,ioos:station:wmo:42043:1,2009-08-01T10:00:00Z,28.9818,-94.9186,4.0,7.746670252,189.061253,9.48,'11111222,11111222,11111222' 
TABS,ioos:station:wmo:42043:1,2009-08-01T10:30:00Z,28.9818,-94.9186,4.0,7.149055882,192.850627,8.92,'11111222,11111222,11111222' 
TABS,ioos:station:wmo:42043:1,2009-08-01T11:00:00Z,28.9818,-94.9186,4.0,6.986164899,195.8667116,8.36,'11111222,11111222,11111222' 
TABS,ioos:station:wmo:42043:1,2009-08-01T11:30:00Z,28.9818,-94.9186,4.0,6.786250806,198.3817186,9.01,'11111222,11111222,11111222' 
TABS,ioos:station:wmo:42043:1,2009-08-01T12:00:00Z,28.9818,-94.9186,4.0,6.647834234,192.5102923,8.24,'11111222,11111222,11111222' 
TABS,ioos:station:wmo:42043:1,2009-08-01T12:30:00Z,28.9818,-94.9186,4.0,7.010770286,202.6514553,8.63,'11111222,11111222,11111222' 
TABS,ioos:station:wmo:42043:1,2009-08-01T13:00:00Z,28.9818,-94.9186,4.0,6.648496071,203.8663924,8.2,'11111222,11111222,11111222' 
TABS,ioos:station:wmo:42043:1,2009-08-01T13:30:00Z,28.9818,-94.9186,4.0,6.488890506,200.1944975,8.54,'11111222,11111222,11111222' 
TABS,ioos:station:wmo:42043:1,2009-08-01T14:00:00Z,28.9818,-94.9186,4.0,5.828979327,201.8563274,7.24,'11111222,11111222,11111222' 
TABS,ioos:station:wmo:42043:1,2009-08-01T14:30:00Z,28.9818,-94.9186,4.0,5.999708326,203.7881099,7.36,'11111222,11111222,11111222' 
TABS,ioos:station:wmo:42043:1,2009-08-01T15:00:00Z,28.9818,-94.9186,4.0,5.93471145,196.8473705,7.41,'11111222,11111222,11111222' 
TABS,ioos:station:wmo:42043:1,2009-08-01T15:30:00Z,28.9818,-94.9186,4.0,6.027304539,198.3749948,7.74,'11111222,11111222,11111222' 
TABS,ioos:station:wmo:42043:1,2009-08-01T16:00:00Z,28.9818,-94.9186,4.0,6.38571061,199.4849931,7.67,'11111222,11111222,11111222' 
TABS,ioos:station:wmo:42043:1,2009-08-01T16:30:00Z,28.9818,-94.9186,4.0,6.482969998,200.3079522,8.17,'11111222,11111222,11111222' 
TABS,ioos:station:wmo:42043:1,2009-08-01T17:00:00Z,28.9818,-94.9186,4.0,5.70263974,203.2383246,7.24,'11111222,11111222,11111222' 
TABS,ioos:station:wmo:42043:1,2009-08-01T17:30:00Z,28.9818,-94.9186,4.0,5.311544032,200.038566,6.56,'11111222,11111222,11111222' 
TABS,ioos:station:wmo:42043:1,2009-08-01T18:00:00Z,28.9818,-94.9186,4.0,5.26157771,211.0012451,6.32,'11111222,11111222,11111222' 
TABS,ioos:station:wmo:42043:1,2009-08-01T18:30:00Z,28.9818,-94.9186,4.0,4.72076265,209.7149141,5.76,'11111222,11111222,11111222' 
TABS,ioos:station:wmo:42043:1,2009-08-01T19:00:00Z,28.9818,-94.9186,4.0,5.01003992,205.2864912,6.23,'11111222,11111222,11111222' 
TABS,ioos:station:wmo:42043:1,2009-08-01T19:30:00Z,28.9818,-94.9186,4.0,4.737140488,202.0710878,6.04,'11111222,11111222,11111222' 
TABS,ioos:station:wmo:42043:1,2009-08-01T20:00:00Z,28.9818,-94.9186,4.0,4.715612367,200.7410775,5.99,'11111222,11111222,11111222' 
TABS,ioos:station:wmo:42043:1,2009-08-01T20:30:00Z,28.9818,-94.9186,4.0,4.700478699,195.9288258,6.62,'11111222,11111222,11111222' 
TABS,ioos:station:wmo:42043:1,2009-08-01T21:00:00Z,28.9818,-94.9186,4.0,4.373030985,193.6233149,5.41,'11111222,11111222,11111222' 
TABS,ioos:station:wmo:42043:1,2009-08-01T21:30:00Z,28.9818,-94.9186,4.0,4.830828086,190.4959822,6.42,'11111222,11111222,11111222' 
TABS,ioos:station:wmo:42043:1,2009-08-01T22:00:00Z,28.9818,-94.9186,4.0,4.85412196,184.3717469,6.25,'11111222,11111222,11111222' 
TABS,ioos:station:wmo:42043:1,2009-08-01T22:30:00Z,28.9818,-94.9186,4.0,4.671669937,184.0508653,5.76,'11111222,11111222,11111222' 
TABS,ioos:station:wmo:42043:1,2009-08-01T23:00:00Z,28.9818,-94.9186,4.0,5.481943086,174.8720314,6.64,'11111222,11111222,11111222' 
TABS,ioos:station:wmo:42043:1,2009-08-01T23:30:00Z,28.9818,-94.9186,4.0,5.629955595,174.0871018,6.91,'11111222,11111222,11111222' 
TABS,ioos:station:wmo:42043:1,2009-08-02T00:00:00Z,28.9818,-94.9186,4.0,5.768231965,169.4110889,7.14,'11111222,11111222,11111222' 
TABS,ioos:station:wmo:42043:1,2009-08-02T00:30:00Z,28.9818,-94.9186,4.0,5.683836732,174.7510352,7.76,'11111222,11111222,11111222' 
TABS,ioos:station:wmo:42043:1,2009-08-02T01:00:00Z,28.9818,-94.9186,4.0,4.901693585,171.6717587,6.77,'11111222,11111222,11111222' 
TABS,ioos:station:wmo:42043:1,2009-08-02T01:30:00Z,28.9818,-94.9186,4.0,5.422102913,170.0167394,6.85,'11111222,11111222,11111222' 
TABS,ioos:station:wmo:42043:1,2009-08-02T02:00:00Z,28.9818,-94.9186,4.0,5.786855796,170.6518504,7.14,'11111222,11111222,11111222' 
TABS,ioos:station:wmo:42043:1,2009-08-02T02:30:00Z,28.9818,-94.9186,4.0,6.238469364,168.8163871,7.87,'11111222,11111222,11111222' 
TABS,ioos:station:wmo:42043:1,2009-08-02T03:00:00Z,28.9818,-94.9186,4.0,6.604400048,163.7331035,8.31,'11111222,11111222,11111222' 
TABS,ioos:station:wmo:42043:1,2009-08-02T03:30:00Z,28.9818,-94.9186,4.0,6.300174601,162.5431475,7.9,'11111222,11111222,11111222' 
TABS,ioos:station:wmo:42043:1,2009-08-02T04:00:00Z,28.9818,-94.9186,4.0,6.108780566,167.3290071,7.54,'11111222,11111222,11111222' 
TABS,ioos:station:wmo:42043:1,2009-08-02T04:30:00Z,28.9818,-94.9186,4.0,5.391892061,167.7941561,6.59,'11111222,11111222,11111222' 
TABS,ioos:station:wmo:42043:1,2009-08-02T05:00:00Z,28.9818,-94.9186,4.0,4.780481147,165.586104,5.91,'11111222,11111222,11111222' 
TABS,ioos:station:wmo:42043:1,2009-08-02T05:30:00Z,28.9818,-94.9186,4.0,5.169835587,168.1686589,6.5,'11111222,11111222,11111222' 
TABS,ioos:station:wmo:42043:1,2009-08-02T06:00:00Z,28.9818,-94.9186,4.0,5.609857396,165.8649154,6.85,'11111222,11111222,11111222' 
TABS,ioos:station:wmo:42043:1,2009-08-02T06:30:00Z,28.9818,-94.9186,4.0,6.420225853,169.8630121,7.77,'11111222,11111222,11111222' 
TABS,ioos:station:wmo:42043:1,2009-08-02T07:00:00Z,28.9818,-94.9186,4.0,6.683502076,175.1938645,8.36,'11111222,11111222,11111222' 
TABS,ioos:station:wmo:42043:1,2009-08-02T07:30:00Z,28.9818,-94.9186,4.0,6.924514423,177.9311809,8.53,'11111222,11111222,11111222' 
TABS,ioos:station:wmo:42043:1,2009-08-02T08:00:00Z,28.9818,-94.9186,4.0,7.010827341,184.4177095,8.75,'11111222,11111222,11111222' 
TABS,ioos:station:wmo:42043:1,2009-08-02T08:30:00Z,28.9818,-94.9186,4.0,7.207558533,182.6244243,9.27,'11111222,11111222,11111222' 
TABS,ioos:station:wmo:42043:1,2009-08-02T09:00:00Z,28.9818,-94.9186,4.0,7.131703864,189.1983554,9.01,'11111222,11111222,11111222' 
TABS,ioos:station:wmo:42043:1,2009-08-02T09:30:00Z,28.9818,-94.9186,4.0,7.160398034,188.5942618,8.83,'11111222,11111222,11111222' 
TABS,ioos:station:wmo:42043:1,2009-08-02T10:00:00Z,28.9818,-94.9186,4.0,6.745465143,197.8710422,8.71,'11111222,11111222,11111222' 
TABS,ioos:station:wmo:42043:1,2009-08-02T10:30:00Z,28.9818,-94.9186,4.0,6.396256718,192.2763728,7.81,'11111222,11111222,11111222' 
TABS,ioos:station:wmo:42043:1,2009-08-02T11:00:00Z,28.9818,-94.9186,4.0,6.286811593,197.9739942,7.96,'11111222,11111222,11111222' 
TABS,ioos:station:wmo:42043:1,2009-08-02T11:30:00Z,28.9818,-94.9186,4.0,6.865311355,198.5142902,8.66,'11111222,11111222,11111222' 
TABS,ioos:station:wmo:42043:1,2009-08-02T12:00:00Z,28.9818,-94.9186,4.0,7.096315946,195.4464907,8.97,'11111222,11111222,11111222' 
TABS,ioos:station:wmo:42043:1,2009-08-02T12:30:00Z,28.9818,-94.9186,4.0,7.349231252,198.7309603,10.02,'11111222,11111222,11111222' 
TABS,ioos:station:wmo:42043:1,2009-08-02T13:00:00Z,28.9818,-94.9186,4.0,6.633038519,201.7694885,8.79,'11111222,11111222,11111222' 
TABS,ioos:station:wmo:42043:1,2009-08-02T13:30:00Z,28.9818,-94.9186,4.0,6.498030471,208.6950477,7.98,'11111222,11111222,11111222' 
TABS,ioos:station:wmo:42043:1,2009-08-02T14:00:00Z,28.9818,-94.9186,4.0,5.804067539,216.593615,7.24,'11111222,11111222,11111222' 
TABS,ioos:station:wmo:42043:1,2009-08-02T14:30:00Z,28.9818,-94.9186,4.0,5.850615352,220.6332765,7.0,'11111222,11111222,11111222' 
TABS,ioos:station:wmo:42043:1,2009-08-02T15:00:00Z,28.9818,-94.9186,4.0,5.246751376,225.1545406,6.55,'11111222,11111222,11111222' 
TABS,ioos:station:wmo:42043:1,2009-08-02T15:30:00Z,28.9818,-94.9186,4.0,4.693197204,218.1642046,5.55,'11111222,11111222,11111222' 
TABS,ioos:station:wmo:42043:1,2009-08-02T16:00:00Z,28.9818,-94.9186,4.0,4.680865305,217.9717254,5.86,'11111222,11111222,11111222' 
TABS,ioos:station:wmo:42043:1,2009-08-02T16:30:00Z,28.9818,-94.9186,4.0,3.891657744,222.9175448,5.07,'11111222,11111222,11111222' 
TABS,ioos:station:wmo:42043:1,2009-08-02T17:00:00Z,28.9818,-94.9186,4.0,3.238826948,242.010827,4.02,'11111222,11111222,11111222' 
TABS,ioos:station:wmo:42043:1,2009-08-02T17:30:00Z,28.9818,-94.9186,4.0,3.175688902,236.560209,4.1,'11111222,11111222,11111222' 
TABS,ioos:station:wmo:42043:1,2009-08-02T18:00:00Z,28.9818,-94.9186,4.0,2.606645354,231.8552082,3.38,'11111222,11111222,11111222' 
TABS,ioos:station:wmo:42043:1,2009-08-02T18:30:00Z,28.9818,-94.9186,4.0,2.546566316,223.4089687,3.26,'11111222,11111222,11111222' 
TABS,ioos:station:wmo:42043:1,2009-08-02T19:00:00Z,28.9818,-94.9186,4.0,2.420330556,215.9230727,3.5,'11111222,11111222,11111222' 
TABS,ioos:station:wmo:42043:1,2009-08-02T19:30:00Z,28.9818,-94.9186,4.0,3.343067454,197.4053148,4.46,'11111222,11111222,11111222' 
TABS,ioos:station:wmo:42043:1,2009-08-02T20:00:00Z,28.9818,-94.9186,4.0,3.714969717,192.2780606,4.81,'11111222,11111222,11111222' 
TABS,ioos:station:wmo:42043:1,2009-08-02T20:30:00Z,28.9818,-94.9186,4.0,3.739197775,188.3036538,4.91,'11111222,11111222,11111222' 
TABS,ioos:station:wmo:42043:1,2009-08-02T21:00:00Z,28.9818,-94.9186,4.0,4.718728642,185.1066831,6.11,'11111222,11111222,11111222' 
TABS,ioos:station:wmo:42043:1,2009-08-02T21:30:00Z,28.9818,-94.9186,4.0,4.259788727,191.7849314,5.57,'11111222,11111222,11111222' 
TABS,ioos:station:wmo:42043:1,2009-08-02T22:00:00Z,28.9818,-94.9186,4.0,4.911720676,178.4835721,6.05,'11111222,11111222,11111222' 
TABS,ioos:station:wmo:42043:1,2009-08-02T22:30:00Z,28.9818,-94.9186,4.0,5.740949399,175.1039705,7.26,'11111222,11111222,11111222' 
TABS,ioos:station:wmo:42043:1,2009-08-02T23:00:00Z,28.9818,-94.9186,4.0,6.004639873,167.3989846,7.93,'11111222,11111222,11111222' 
TABS,ioos:station:wmo:42043:1,2009-08-02T23:30:00Z,28.9818,-94.9186,4.0,6.308922253,171.5233521,8.03,'11111222,11111222,11111222' 
TABS,ioos:station:wmo:42043:1,2009-08-03T00:00:00Z,28.9818,-94.9186,4.0,6.420591873,172.1225292,7.95,'11111222,11111222,11111222' 
TABS,ioos:station:wmo:42043:1,2009-08-03T00:30:00Z,28.9818,-94.9186,4.0,6.487010097,171.7577094,7.84,'11111222,11111222,11111222' 
TABS,ioos:station:wmo:42043:1,2009-08-03T01:00:00Z,28.9818,-94.9186,4.0,6.21305078,174.087757,7.53,'11111222,11111222,11111222' 
TABS,ioos:station:wmo:42043:1,2009-08-03T01:30:00Z,28.9818,-94.9186,4.0,6.086657539,175.7603487,7.34,'11111222,11111222,11111222' 
TABS,ioos:station:wmo:42043:1,2009-08-03T02:00:00Z,28.9818,-94.9186,4.0,5.384663406,173.4955264,7.23,'11111222,11111222,11111222' 
TABS,ioos:station:wmo:42043:1,2009-08-03T02:30:00Z,28.9818,-94.9186,4.0,5.942432162,174.0114055,7.81,'11111222,11111222,11111222' 
TABS,ioos:station:wmo:42043:1,2009-08-03T03:00:00Z,28.9818,-94.9186,4.0,5.964494949,174.8057937,7.8,'11111222,11111222,11111222' 
TABS,ioos:station:wmo:42043:1,2009-08-03T03:30:00Z,28.9818,-94.9186,4.0,6.222941427,172.521186,7.6,'11111222,11111222,11111222' 
TABS,ioos:station:wmo:42043:1,2009-08-03T04:00:00Z,28.9818,-94.9186,4.0,6.715966051,174.9602707,7.91,'11111222,11111222,11111222' 
TABS,ioos:station:wmo:42043:1,2009-08-03T04:30:00Z,28.9818,-94.9186,4.0,6.598765036,177.0467564,7.8,'11111222,11111222,11111222' 
TABS,ioos:station:wmo:42043:1,2009-08-03T05:00:00Z,28.9818,-94.9186,4.0,7.102541799,181.5331084,8.53,'11111222,11111222,11111222' 
TABS,ioos:station:wmo:42043:1,2009-08-03T05:30:00Z,28.9818,-94.9186,4.0,7.444199084,181.9247433,8.72,'11111222,11111222,11111222' 
TABS,ioos:station:wmo:42043:1,2009-08-03T06:00:00Z,28.9818,-94.9186,4.0,6.641882263,185.6163705,8.0,'11111222,11111222,11111222' 
TABS,ioos:station:wmo:42043:1,2009-08-03T06:30:00Z,28.9818,-94.9186,4.0,6.358647655,186.3204861,7.92,'11111222,11111222,11111222' 
TABS,ioos:station:wmo:42043:1,2009-08-03T07:00:00Z,28.9818,-94.9186,4.0,6.806621776,188.0231548,8.14,'11111222,11111222,11111222' 
TABS,ioos:station:wmo:42043:1,2009-08-03T07:30:00Z,28.9818,-94.9186,4.0,6.917029709,191.4238304,8.49,'11111222,11111222,11111222' 
TABS,ioos:station:wmo:42043:1,2009-08-03T08:00:00Z,28.9818,-94.9186,4.0,6.971312645,197.1874953,8.58,'11111222,11111222,11111222' 
TABS,ioos:station:wmo:42043:1,2009-08-03T08:30:00Z,28.9818,-94.9186,4.0,6.852714791,198.1971569,8.38,'11111222,11111222,11111222' 
TABS,ioos:station:wmo:42043:1,2009-08-03T09:00:00Z,28.9818,-94.9186,4.0,6.551335742,201.86653,7.9,'11111222,11111222,11111222' 
TABS,ioos:station:wmo:42043:1,2009-08-03T09:30:00Z,28.9818,-94.9186,4.0,6.798477771,201.3946687,8.35,'11111222,11111222,11111222' 
TABS,ioos:station:wmo:42043:1,2009-08-03T10:00:00Z,28.9818,-94.9186,4.0,7.254805304,204.3395302,8.8,'11111222,11111222,11111222' 
TABS,ioos:station:wmo:42043:1,2009-08-03T10:30:00Z,28.9818,-94.9186,4.0,6.42816459,204.0531435,8.07,'11111222,11111222,11111222' 
TABS,ioos:station:wmo:42043:1,2009-08-03T11:00:00Z,28.9818,-94.9186,4.0,5.845699274,207.3980538,7.17,'11111222,11111222,11111222' 
TABS,ioos:station:wmo:42043:1,2009-08-03T11:30:00Z,28.9818,-94.9186,4.0,5.066162256,210.6147717,6.9,'11111222,11111222,11111222' 
TABS,ioos:station:wmo:42043:1,2009-08-03T12:00:00Z,28.9818,-94.9186,4.0,5.078356033,214.0031161,6.32,'11111222,11111222,11111222' 
TABS,ioos:station:wmo:42043:1,2009-08-03T12:30:00Z,28.9818,-94.9186,4.0,4.644911194,211.9793684,5.95,'11111222,11111222,11111222' 
TABS,ioos:station:wmo:42043:1,2009-08-03T13:00:00Z,28.9818,-94.9186,4.0,4.488173348,210.6792797,5.96,'11111222,11111222,11111222' 
TABS,ioos:station:wmo:42043:1,2009-08-03T13:30:00Z,28.9818,-94.9186,4.0,3.86214966,216.3656196,5.36,'11111222,11111222,11111222' 
TABS,ioos:station:wmo:42043:1,2009-08-03T14:00:00Z,28.9818,-94.9186,4.0,3.795589546,210.2131135,4.7,'11111222,11111222,11111222' 
TABS,ioos:station:wmo:42043:1,2009-08-03T14:30:00Z,28.9818,-94.9186,4.0,3.401190968,224.8809876,4.22,'11111222,11111222,11111222' 
TABS,ioos:station:wmo:42043:1,2009-08-03T15:00:00Z,28.9818,-94.9186,4.0,2.974104907,203.3758188,4.29,'11111222,11111222,11111222' 
TABS,ioos:station:wmo:42043:1,2009-08-03T15:30:00Z,28.9818,-94.9186,4.0,2.89720555,199.5608682,3.98,'11111222,11111222,11111222' 
TABS,ioos:station:wmo:42043:1,2009-08-03T16:00:00Z,28.9818,-94.9186,4.0,3.064718584,199.4401998,4.5,'11111222,11111222,11111222' 
TABS,ioos:station:wmo:42043:1,2009-08-03T16:30:00Z,28.9818,-94.9186,4.0,3.187804887,189.9352849,4.6,'11111222,11111222,11111222' 
TABS,ioos:station:wmo:42043:1,2009-08-03T17:00:00Z,28.9818,-94.9186,4.0,3.305465172,183.2954127,4.3,'11111222,11111222,11111222' 
TABS,ioos:station:wmo:42043:1,2009-08-03T17:30:00Z,28.9818,-94.9186,4.0,3.227506778,183.9087456,4.25,'11111222,11111222,11111222' 
TABS,ioos:station:wmo:42043:1,2009-08-03T18:00:00Z,28.9818,-94.9186,4.0,3.747692623,183.671902,4.89,'11111222,11111222,11111222' 
TABS,ioos:station:wmo:42043:1,2009-08-03T18:30:00Z,28.9818,-94.9186,4.0,4.057647101,171.2111264,5.17,'11111222,11111222,11111222' 
TABS,ioos:station:wmo:42043:1,2009-08-03T19:00:00Z,28.9818,-94.9186,4.0,3.812663111,166.036895,4.76,'11111222,11111222,11111222' 
TABS,ioos:station:wmo:42043:1,2009-08-03T19:30:00Z,28.9818,-94.9186,4.0,3.866949702,164.706142,4.94,'11111222,11111222,11111222' 
TABS,ioos:station:wmo:42043:1,2009-08-03T20:00:00Z,28.9818,-94.9186,4.0,4.239339571,163.2751148,5.41,'11111222,11111222,11111222' 
TABS,ioos:station:wmo:42043:1,2009-08-03T20:30:00Z,28.9818,-94.9186,4.0,4.079534287,167.9741462,5.35,'11111222,11111222,11111222' 
TABS,ioos:station:wmo:42043:1,2009-08-03T21:00:00Z,28.9818,-94.9186,4.0,4.012991403,161.2492563,5.15,'11111222,11111222,11111222' 
TABS,ioos:station:wmo:42043:1,2009-08-03T21:30:00Z,28.9818,-94.9186,4.0,4.141980203,154.5488194,5.22,'11111222,11111222,11111222' 
TABS,ioos:station:wmo:42043:1,2009-08-03T22:00:00Z,28.9818,-94.9186,4.0,4.244631904,148.7818807,5.43,'11111222,11111222,11111222' 
TABS,ioos:station:wmo:42043:1,2009-08-03T22:30:00Z,28.9818,-94.9186,4.0,4.843573061,152.8532912,6.19,'11111222,11111222,11111222' 
TABS,ioos:station:wmo:42043:1,2009-08-03T23:00:00Z,28.9818,-94.9186,4.0,4.94952523,148.7188822,5.94,'11111222,11111222,11111222' 
TABS,ioos:station:wmo:42043:1,2009-08-03T23:30:00Z,28.9818,-94.9186,4.0,4.837706068,157.517055,6.11,'11111222,11111222,11111222' 
TABS,ioos:station:wmo:42043:1,2009-08-04T00:00:00Z,28.9818,-94.9186,4.0,4.43416283,143.6214187,5.75,'11111222,11111222,11111222' 
TABS,ioos:station:wmo:42043:1,2009-08-04T00:30:00Z,28.9818,-94.9186,4.0,4.51860598,142.1920416,5.7,'11111222,11111222,11111222' 
TABS,ioos:station:wmo:42043:1,2009-08-04T01:00:00Z,28.9818,-94.9186,4.0,4.80651641,146.5416512,6.14,'11111222,11111222,11111222' 
TABS,ioos:station:wmo:42043:1,2009-08-04T01:30:00Z,28.9818,-94.9186,4.0,4.851030818,141.9492129,6.14,'11111222,11111222,11111222' 
TABS,ioos:station:wmo:42043:1,2009-08-04T02:00:00Z,28.9818,-94.9186,4.0,5.591395175,146.4523237,6.94,'11111222,11111222,11111222' 
TABS,ioos:station:wmo:42043:1,2009-08-04T02:30:00Z,28.9818,-94.9186,4.0,5.886272165,148.3353908,7.13,'11111222,11111222,11111222' 
TABS,ioos:station:wmo:42043:1,2009-08-04T03:00:00Z,28.9818,-94.9186,4.0,5.576674636,147.8206524,6.92,'11111222,11111222,11111222' 
TABS,ioos:station:wmo:42043:1,2009-08-04T03:30:00Z,28.9818,-94.9186,4.0,5.738083304,158.5326092,6.98,'11111222,11111222,11111222' 
TABS,ioos:station:wmo:42043:1,2009-08-04T04:00:00Z,28.9818,-94.9186,4.0,5.764590185,153.5241207,6.86,'11111222,11111222,11111222' 
TABS,ioos:station:wmo:42043:1,2009-08-04T04:30:00Z,28.9818,-94.9186,4.0,5.766185914,157.5714851,6.91,'11111222,11111222,11111222' 
TABS,ioos:station:wmo:42043:1,2009-08-04T05:00:00Z,28.9818,-94.9186,4.0,5.962767814,154.6815167,7.26,'11111222,11111222,11111222' 
TABS,ioos:station:wmo:42043:1,2009-08-04T05:30:00Z,28.9818,-94.9186,4.0,6.163870537,160.7716241,7.37,'11111222,11111222,11111222' 
TABS,ioos:station:wmo:42043:1,2009-08-04T06:00:00Z,28.9818,-94.9186,4.0,6.078963727,160.4922548,7.24,'11111222,11111222,11111222' 
TABS,ioos:station:wmo:42043:1,2009-08-04T06:30:00Z,28.9818,-94.9186,4.0,5.460082417,159.0757576,6.89,'11111222,11111222,11111222' 
TABS,ioos:station:wmo:42043:1,2009-08-04T07:00:00Z,28.9818,-94.9186,4.0,6.829414323,162.9715389,8.28,'11111222,11111222,11111222' 
TABS,ioos:station:wmo:42043:1,2009-08-04T07:30:00Z,28.9818,-94.9186,4.0,6.743411599,162.7475986,8.4,'11111222,11111222,11111222' 
TABS,ioos:station:wmo:42043:1,2009-08-04T08:00:00Z,28.9818,-94.9186,4.0,5.915716356,177.4812141,7.33,'11111222,11111222,11111222' 
TABS,ioos:station:wmo:42043:1,2009-08-04T08:30:00Z,28.9818,-94.9186,4.0,5.778866671,183.1745335,7.08,'11111222,11111222,11111222' 
TABS,ioos:station:wmo:42043:1,2009-08-04T09:00:00Z,28.9818,-94.9186,4.0,5.986250914,174.6324862,7.07,'11111222,11111222,11111222' 
TABS,ioos:station:wmo:42043:1,2009-08-04T09:30:00Z,28.9818,-94.9186,4.0,5.302923722,173.6123071,6.56,'11111222,11111222,11111222' 
TABS,ioos:station:wmo:42043:1,2009-08-04T10:00:00Z,28.9818,-94.9186,4.0,5.056649088,175.3494961,6.28,'11111222,11111222,11111222' 
TABS,ioos:station:wmo:42043:1,2009-08-04T10:30:00Z,28.9818,-94.9186,4.0,4.409591818,173.3587069,5.99,'11111222,11111222,11111222' 
TABS,ioos:station:wmo:42043:1,2009-08-04T11:00:00Z,28.9818,-94.9186,4.0,4.93170356,172.5437759,6.01,'11111222,11111222,11111222' 
TABS,ioos:station:wmo:42043:1,2009-08-04T11:30:00Z,28.9818,-94.9186,4.0,4.740516849,169.4251276,6.08,'11111222,11111222,11111222' 
TABS,ioos:station:wmo:42043:1,2009-08-04T12:00:00Z,28.9818,-94.9186,4.0,4.067357865,172.2287183,4.96,'11111222,11111222,11111222' 
TABS,ioos:station:wmo:42043:1,2009-08-04T12:30:00Z,28.9818,-94.9186,4.0,3.75616826,172.0427038,4.64,'11111222,11111222,11111222' 
TABS,ioos:station:wmo:42043:1,2009-08-04T13:00:00Z,28.9818,-94.9186,4.0,3.160775221,167.0192109,4.3,'11111222,11111222,11111222' 
TABS,ioos:station:wmo:42043:1,2009-08-04T13:30:00Z,28.9818,-94.9186,4.0,3.413165686,160.1318852,4.34,'11111222,11111222,11111222' 
TABS,ioos:station:wmo:42043:1,2009-08-04T14:00:00Z,28.9818,-94.9186,4.0,3.27604945,159.0757576,4.23,'11111222,11111222,11111222' 
TABS,ioos:station:wmo:42043:1,2009-08-04T14:30:00Z,28.9818,-94.9186,4.0,3.304617981,161.8394445,4.71,'11111222,11111222,11111222' 
TABS,ioos:station:wmo:42043:1,2009-08-04T15:00:00Z,28.9818,-94.9186,4.0,2.968922363,156.370888,3.89,'11111222,11111222,11111222' 
TABS,ioos:station:wmo:42043:1,2009-08-04T15:30:00Z,28.9818,-94.9186,4.0,3.091811767,151.6116634,4.3,'11111222,11111222,11111222' 
TABS,ioos:station:wmo:42043:1,2009-08-04T16:00:00Z,28.9818,-94.9186,4.0,2.997865908,148.6431986,3.77,'11111222,11111222,11111222' 
TABS,ioos:station:wmo:42043:1,2009-08-04T16:30:00Z,28.9818,-94.9186,4.0,3.125795899,145.9543527,4.08,'11111222,11111222,11111222' 
TABS,ioos:station:wmo:42043:1,2009-08-04T17:00:00Z,28.9818,-94.9186,4.0,3.451448971,141.4701205,4.33,'11111222,11111222,11111222' 
TABS,ioos:station:wmo:42043:1,2009-08-04T17:30:00Z,28.9818,-94.9186,4.0,3.419766074,148.6342566,4.57,'11111222,11111222,11111222' 
TABS,ioos:station:wmo:42043:1,2009-08-04T18:00:00Z,28.9818,-94.9186,4.0,3.135602016,209.8356798,4.2,'11111222,11111222,11111222' 
TABS,ioos:station:wmo:42043:1,2009-08-04T18:30:00Z,28.9818,-94.9186,4.0,3.016918958,190.1181814,3.93,'11111222,11111222,11111222' 